Location: Holiday Acres Laynes 2 Mobile Home Park
(26.7249°N, 81.8671°W)
Time: 18:32:17
(UTC+00:00)

Cosmos 2341 Rocket - Visible Passes

Search period start: 16 April 2021 00:00
Search period end: 26 April 2021 00:00
Orbit: 968 x 1005 km, 82.9° (Epoch: 15 April)

Date Brightness Start Highest point End Pass type
(mag) Time Alt. Az. Time Alt. Az. Time Alt. Az.
16 Apr 6.6 06:40:45 10° N 06:41:27 13° NNE 06:41:27 13° NNE visible
17 Apr 6.5 07:09:06 10° N 07:09:50 14° N 07:09:50 14° N visible
18 Apr 6.5 07:38:07 10° NNW 07:38:13 10° NNW 07:38:13 10° NNW visible
19 Apr 6.6 06:21:11 10° N 06:21:44 13° NNE 06:21:44 13° NNE visible
20 Apr 6.5 06:49:32 10° N 06:50:09 13° N 06:50:09 13° N visible
22 Apr 6.7 06:01:36 10° N 06:02:08 13° N 06:02:08 13° N visible
23 Apr 6.6 06:30:00 10° N 06:30:35 13° N 06:30:35 13° N visible
24 Apr 6.6 06:59:03 10° NNW 06:59:03 10° NNW 06:59:03 10° NNW visible
25 Apr 6.6 05:42:02 10° N 05:42:38 13° N 05:42:38 13° N visible
